Home > Weather > Almere > Past weeks

Flag for Netherlands Past Weather in Almere, Netherlands — Yesterday and Last 2 Weeks

Now
64 °F

Passing clouds.


Feels Like: 64 °F
Forecast: 56 / 72 °F
Wind: 12 mph from Southwest

Location: Amsterdam Schiphol Airport

Current Time: Jul 27, 2016 at 9:50:20 AM

Latest Report: Jul 27, 2016 at 9:25 AM


Visibility: N/A

Pressure: 30.01 "Hg

Humidity: 78%

Dew Point: 57 °F

Location of AlmereLocation

Past Weather in Almere — Graph

°F

Almere Temperature Yesterday

Maximum temperature yesterday: 75 °F (at 2:55 PM)
Minimum temperature yesterday: 57 °F (at 1:55 AM)
Average temperature yesterday: 66 °F

High & Low Weather Summary for the Past Weeks

 TemperatureHumidityPressure
High91 °F (Jul 20, 3:25 PM)100% (Jul 17, 11:25 PM)30.27 "Hg (Jul 17, 11:25 PM)
Low50 °F (Jul 14, 3:55 AM)38% (Jul 20, 2:55 PM)29.80 "Hg (Jul 20, 3:55 PM)
Average67 °F75%30.07 "Hg
* Reported Jul 12 8:25 AM — Jul 27 8:25 AM, Almere, Weather by CustomWeather, © 2016

Note: Actual official high and low records may vary slightly from our data, if they occured in-between our weather recording intervals... More about our weather records

Advertising

Almere Weather History for the Previous 24 Hours

Scroll right to see more
 ConditionsComfort  
Time TempWeatherWind HumidityBarometerVisibility
8:25 AM
Wed, Jul 27
64 °FPassing clouds.13 mph73%30.01 "HgN/A
7:55 AM63 °FPassing clouds.10 mph83%30.01 "HgN/A
7:25 AM63 °FPassing clouds.10 mph83%30.01 "HgN/A
6:55 AM63 °FPassing clouds.9 mph88%30.01 "HgN/A
6:25 AM63 °FPassing clouds.8 mph88%30.01 "HgN/A
5:55 AM63 °FPassing clouds.7 mph88%30.04 "HgN/A
5:25 AM64 °FPassing clouds.7 mph83%30.04 "HgN/A
4:55 AM63 °FPassing clouds.7 mph88%30.04 "HgN/A
4:25 AM64 °FLight rain. Overcast.7 mph83%30.04 "HgN/A
3:55 AM64 °FOvercast.6 mph83%30.07 "HgN/A
3:25 AM64 °FPassing clouds.5 mph83%30.07 "HgN/A
2:55 AM64 °FPassing clouds.7 mph78%30.07 "HgN/A
2:25 AM64 °FPassing clouds.5 mph78%30.07 "HgN/A
1:55 AM64 °FClear.7 mph73%30.09 "Hg10 mi
1:25 AM66 °FPassing clouds.6 mph68%30.09 "HgN/A
12:55 AM66 °FPassing clouds.7 mph68%30.09 "HgN/A
12:25 AM64 °FClear.6 mph73%30.09 "Hg10 mi
11:55 PM
Tue, Jul 26
66 °FClear.6 mph68%30.09 "Hg10 mi
11:25 PM64 °FClear.5 mph73%30.09 "Hg10 mi
10:55 PM66 °FClear.1 mph64%30.12 "Hg10 mi
10:25 PM64 °FSunny.3 mph73%30.12 "Hg10 mi
9:55 PM66 °FSunny.2 mph64%30.12 "Hg10 mi
9:25 PM66 °FPassing clouds.3 mph68%30.09 "HgN/A
8:55 PM66 °FPassing clouds.5 mph68%30.12 "HgN/A
8:25 PM66 °FSunny.6 mph68%30.12 "Hg10 mi
7:55 PM68 °FPassing clouds.7 mph60%30.12 "HgN/A
7:25 PM70 °FPassing clouds.8 mph60%30.12 "HgN/A
6:55 PM70 °FPassing clouds.9 mph60%30.12 "HgN/A
6:25 PM70 °FPassing clouds.10 mph60%30.12 "HgN/A
5:55 PM72 °FPassing clouds.9 mph57%30.12 "HgN/A
5:25 PM72 °FPassing clouds.10 mph57%30.12 "HgN/A
4:55 PM72 °FPassing clouds.10 mph57%30.12 "HgN/A
4:25 PM73 °FPassing clouds.10 mph53%30.12 "HgN/A
3:55 PM73 °FPassing clouds.9 mph53%30.12 "HgN/A
3:25 PM75 °FPassing clouds.9 mph47%30.12 "HgN/A
2:55 PM75 °FPassing clouds.8 mph47%30.12 "HgN/A
2:25 PM73 °FPassing clouds.7 mph53%30.12 "HgN/A
1:55 PM73 °FPassing clouds.8 mph50%30.12 "HgN/A
1:25 PM73 °FPassing clouds.7 mph50%30.12 "HgN/A
12:55 PM72 °FPassing clouds.7 mph57%30.12 "HgN/A
12:25 PM72 °FPassing clouds.6 mph53%30.12 "HgN/A
11:55 AM73 °FPassing clouds.6 mph50%30.12 "HgN/A
11:25 AM72 °FPassing clouds.6 mph53%30.12 "HgN/A
10:55 AM72 °FPassing clouds.7 mph50%30.12 "HgN/A
10:25 AM70 °FPassing clouds.6 mph64%30.12 "HgN/A
9:55 AM70 °FPassing clouds.6 mph69%30.12 "HgN/A
9:25 AM68 °FPassing clouds.5 mph78%30.12 "HgN/A
Weather by CustomWeather, © 2016

See weather overviewHow to use our weather pages